History for Miami, FL

Thursday, December 27, 2012 — View Current Conditions

Jump to Data:

Date:
Airport Code:
Recently Viewed Airport Codes: KMIA
Daily Summary
  Actual Average Record
Temperature
Mean Temperature 65°F 69°F  
Max Temperature 74°F 77°F 86°F (1938)
Min Temperature 55°F 61°F 38°F (1909)
Degree Days
Heating Degree Days 0 2  
Month to date heating degree days 12 26  
Since 1 July heating degree days 13 29  
Cooling Degree Days 0 6  
Month to date cooling degree days 219 182  
Year to date cooling degree days 4659 4554  
Growing Degree Days 14 (Base 50)    
Moisture
Dew Point 50°F    
Average Humidity 62    
Maximum Humidity 86    
Minimum Humidity 37    
Precipitation
Precipitation 0.00 in 0.06 in 1.72 in (1958)
Month to date precipitation 0.51 1.81  
Year to date precipitation 86.94 61.67  
Snow
Snow 0.00 in in in ()
Month to date snowfall 0.0  
Since 1 July snowfall 0.0  
Snow Depth 0.00 in    
Sea Level Pressure
Sea Level Pressure 30.04 in    
Wind
Wind Speed 4 mph (NNW)    
Max Wind Speed 14 mph    
Max Gust Speed 17 mph    
Visibility 10 miles    
Events      
T = Trace of Precipitation, MM = Missing Value Source: NWS Daily Summary

Show full METARS

(help) - Comma Delimited File

Hourly Observations

Time(EST) Temperature Dew Point Humidity Sea Level Pressure Visibility Wind Direction Wind Speed Gust Speed Precipitation Events Conditions
12:53 AM 64.0°F 59.0°F 84% 30.01 in 10.0 miles NW 5.8 mph - N/A   Partly Cloudy
1:53 AM 63.0°F 55.9°F 78% 30.00 in 10.0 miles Variable 6.9 mph - N/A   Partly Cloudy
2:53 AM 62.1°F 55.9°F 80% 30.00 in 10.0 miles NW 6.9 mph - N/A   Scattered Clouds
3:53 AM 60.1°F 54.0°F 80% 30.01 in 10.0 miles NW 8.1 mph - N/A   Partly Cloudy
4:53 AM 59.0°F 53.1°F 81% 30.01 in 10.0 miles NNW 9.2 mph - N/A   Partly Cloudy
5:53 AM 57.0°F 52.0°F 83% 30.03 in 10.0 miles NW 10.4 mph - N/A   Clear
7:53 AM 55.9°F 48.0°F 75% 30.07 in 10.0 miles NW 4.6 mph - N/A   Partly Cloudy
8:53 AM 59.0°F 50.0°F 72% 30.09 in 10.0 miles NW 6.9 mph - N/A   Partly Cloudy
9:53 AM 61.0°F 50.0°F 67% 30.09 in 10.0 miles NNW 5.8 mph - N/A   Partly Cloudy
10:53 AM 64.0°F 50.0°F 60% 30.09 in 10.0 miles Calm Calm - N/A   Partly Cloudy
11:53 AM 68.0°F 48.0°F 49% 30.06 in 10.0 miles North 4.6 mph - N/A   Partly Cloudy
12:53 PM 69.1°F 46.0°F 44% 30.03 in 10.0 miles Variable 4.6 mph - N/A   Partly Cloudy
1:53 PM 72.0°F 45.0°F 38% 30.01 in 10.0 miles NW 3.5 mph - N/A   Partly Cloudy
2:53 PM 73.9°F 46.0°F 37% 30.01 in 10.0 miles Variable 3.5 mph - N/A   Scattered Clouds
3:53 PM 73.9°F 46.0°F 37% 30.00 in 10.0 miles NNW 3.5 mph - N/A   Scattered Clouds
4:53 PM 72.0°F 46.0°F 40% 30.02 in 10.0 miles NW 6.9 mph - N/A   Partly Cloudy
5:53 PM 69.1°F 43.0°F 39% 30.04 in 10.0 miles Calm Calm - N/A   Partly Cloudy
6:53 PM 66.9°F 50.0°F 54% 30.04 in 10.0 miles Calm Calm - N/A   Partly Cloudy
7:53 PM 66.0°F 50.0°F 56% 30.05 in 10.0 miles NNE 3.5 mph - N/A   Partly Cloudy
8:53 PM 63.0°F 50.0°F 63% 30.07 in 10.0 miles Calm Calm - N/A   Partly Cloudy
9:53 PM 62.1°F 50.0°F 65% 30.08 in 10.0 miles NNW 5.8 mph - N/A   Clear
10:53 PM 61.0°F 46.0°F 58% 30.07 in 10.0 miles Calm Calm - N/A   Clear
11:53 PM 59.0°F 46.0°F 62% 30.07 in 10.0 miles Calm Calm - N/A   Scattered Clouds